Meteo Giornale » Osservazioni meteo Francia » Dole Tavaux

ore: 06:00 - Osservazioni Meteo Dole Tavaux
Lat. 47° 2' N Lon. 5° 26' E Alt. 196 metri s.l.m.

sereno Europe/Paris

12 °C

Sereno

Temp. 24 Ore

12 °C

24 °C

Nord/Nord-Est

27.8 Km/h

Dew point 4 °C

Umidità 57 %

Visibilità  10 Km

Il sole sorge alle ore 07:19

Il sole tramonta alle ore 19:44

Data e Ora Cielo e Fenomeni T °C DP °C Um. % Pres. hPa Vis. km Vento km/h
Oggi h: 06:00 sereno Sereno 12 4 57 1021 10 N/NE 27.8
Oggi h: 05:30 sereno Sereno 12 4 57 1022 10 N/NE 25.9
Oggi h: 05:00 sereno Sereno 12 4 57 1022 10 N/NE 25.9
Oggi h: 04:30 sereno Sereno 13 4 54 1022 10 N/NE 22.2
Oggi h: 04:00 sereno Sereno 13 4 54 1022 10 N/NE 25.9
Oggi h: 03:30 sereno Sereno 13 4 54 1022 10 N/NE 27.8
Oggi h: 03:00 sereno Sereno 13 4 54 1022 10 N/NE 29.6
Oggi h: 02:30 sereno Sereno 14 4 50 1022 10 N/NE 27.8
Oggi h: 02:00 sereno Sereno 14 4 50 1022 10 N/NE 27.8
Oggi h: 01:30 sereno Sereno 14 4 50 1022 10 N/NE 29.6
Oggi h: 01:00 sereno Sereno 14 4 50 1022 10 N/NE 27.8
Oggi h: 00:30 sereno Sereno 15 4 47 1022 10 N/NE 25.9
Oggi h: 00:00 sereno Sereno 15 4 47 1021 10 N/NE 24
Ieri h: 23:30 sereno Sereno 15 5 51 1021 10 N/NE 22.2
Ieri h: 23:00 sereno Sereno 16 5 47 1021 10 N/NE 22.2
Ieri h: 22:30 sereno Sereno 16 6 51 1021 10 NE 27.8
Ieri h: 22:00 sereno Sereno 17 7 51 1021 10 N/NE 24
Ieri h: 21:30 sereno Sereno 17 5 45 1021 10 N 18.5
Ieri h: 21:00 sereno Sereno 17 5 45 1021 10 N 20.3
Ieri h: 20:30 sereno Sereno 18 4 39 1020 10 N 22.2
Ieri h: 20:00 sereno Sereno 19 5 39 1020 10 N 22.2
Ieri h: 19:30 sereno Sereno 20 5 37 1019 10 N 24
Ieri h: 19:00 sereno Sereno 21 6 37 1019 10 N 29.6
Ieri h: 18:30 sereno Sereno 23 8 38 1019 10 N/NE 24
Ieri h: 18:00 sereno Sereno 23 8 38 1019 10 NE 24
Ieri h: 17:30 sereno Sereno 23 9 40 1019 10 NE 27.8
Ieri h: 17:00 sereno Sereno 23 8 38 1019 10 NE 27.8
Ieri h: 16:30 sereno Sereno 24 8 35 1019 10 NE 29.6
Ieri h: 16:00 sereno Sereno 23 8 38 1019 10 NE 29.6
Ieri h: 15:30 sereno Sereno 23 8 38 1020 10 NE 33.3
Ieri h: 15:00 sereno Sereno 23 8 38 1020 10 N/NE 37
Ieri h: 14:30 sereno Sereno 23 8 38 1019 10 NE 35.2
Ieri h: 14:00 sereno Sereno 22 8 40 1019 10 N/NE 40.7
Ieri h: 13:30 sereno Sereno 22 9 43 1020 10 N/NE 35.2
Ieri h: 13:00 sereno Sereno 21 9 46 1020 10 NE 31.5
Ieri h: 12:30 sereno Sereno 20 9 49 1020 10 N/NE 31.5
Ieri h: 12:00 sereno Sereno 19 9 52 1020 10 NE 31.5
Ieri h: 11:30 sereno Sereno 18 8 51 1020 10 N/NE 33.3
Ieri h: 11:00 sereno Sereno 17 8 55 1020 10 N/NE 33.3
Ieri h: 10:30 sereno Sereno 17 8 55 1020 10 NE 31.5
Ieri h: 10:00 sereno Sereno 16 8 58 1020 10 N/NE 31.5
Ieri h: 09:30 sereno Sereno 15 8 62 1019 10 N/NE 33.3
Ieri h: 09:00 sereno Sereno 15 8 62 1019 10 N/NE 31.5
Ieri h: 08:30 sereno Sereno 14 7 62 1019 10 N/NE 29.6
Ieri h: 08:00 sereno Sereno 13 7 66 1019 10 N/NE 25.9
Ieri h: 07:30 sereno Sereno 13 7 66 1019 10 N/NE 27.8
Ieri h: 07:00 sereno Sereno 13 7 66 1019 10 N/NE 29.6